C/2004 G1 ( LINEAR )

Japanese version
Home page
Updated on January 15, 2005

---------------------------------------------------------------------

* Profile

Discovery Date April 9, 2004
Magnitude 18.5 mag
Discoverer Lincoln Laboratory Near-Earth Asteroid Research project

* Pictures

* Orbital Elements

T 2004 June 4.7914 TT                                   MPC
q   1.202466             (2000.0)            P               Q
                   Peri.  110.4895      -0.0577618      +0.7306795
                   Node   228.3763      +0.1376218      +0.6807328
e   1.0            Incl.  114.4898      +0.9887992      -0.0520614
>From 42 observations 2004 Apr. 9-May 5.

* Finding Charts

* Magnitudes Graph

        m1 = 13.5 + 5 log d + 18.0 log r

---------------------------------------------------------------------

The orbital elements are published on M.P.E.C. 2004-J38.
The charts are made with StellaNavigator Ver.2.0 for Windows (AstroArts / ASCII).
The magnitudes graphs are made with Comet for Windows.

---------------------------------------------------------------------

Copyright(C) Seiichi Yoshida (comet@aerith.net). All rights reserved.